Location: Unspecified
(0.0000°N, 0.0000°E)
Time: 01:05:43
(UTC+01:00)

CZ-4B DEB - Visible Passes

Search period start: 07 March 2015 00:00
Search period end: 17 March 2015 00:00
Orbit: 494 x 509 km, 97.5° (Epoch: 06 March)

Date Brightness Start Highest point End Pass type
(mag) Time Alt. Az. Time Alt. Az. Time Alt. Az.
08 Mar 6.0 20:27:15 10° SSW 20:30:00 19° W 20:32:38 10° NW visible
09 Mar 4.6 20:07:23 10° S 20:10:51 39° W 20:14:16 10° NNW visible
10 Mar 3.1 19:47:59 10° S 19:51:40 89° WSW 19:55:19 10° NNW visible
11 Mar 3.5 19:28:59 10° SSE 19:32:27 40° E 19:35:53 10° N visible
12 Mar 6.7 20:45:54 10° WSW 20:46:49 11° W 20:47:27 10° W visible
13 Mar 5.8 20:24:33 10° SSW 20:27:25 21° W 20:30:12 10° NW visible
14 Mar 4.3 20:04:32 10° S 20:08:03 44° W 20:11:31 10° NNW visible
15 Mar 3.0 19:44:58 10° SSE 19:48:38 80° E 19:52:16 10° N visible
